Tracking 29511 objects as of 17-Sep-2024
HD Live streaming from Space Station
objects crossing your sky now

FENGYUN 1C DEB

Track FENGYUN 1C DEB now!
10-day predictions


NORAD ID: 30570
Int'l Code: 1999-025ALL
Perigee: 829.7 km
Apogee: 883.1 km
Inclination: 98.8 °
Period: 101.9 minutes
Semi major axis: 7227 km
RCS: 0.044 m2 (small)
Launch date: May 10, 1999
Source: People's Republic of China (PRC)
Launch site: Taiyaun Space Center, China (TSC)

Note: This is SATELLITE DEBRIS
Your satellite tracking list
Your tracking list is empty




NASA's NSSDC Master Catalog

Two Line Element Set (TLE):
1 30570U 99025ALL 24260.65664615  .00001938  00000-0  10562-2 0  9990
2 30570  98.7676 297.3416 0036912  62.9173  55.0518 14.12957177906105
Source of the keplerian elements: AFSPC